Weather in Bilmak

Ukraine / Zaporizhia Region     47°21′45″N   36°39′11″E
temp.,
°C
wind,
m/s
gust,
m/s
humid.,
%
clouds,
%
prec.,
mm/h
press.,
hPa
HPBL,
m
5 march, fri
fri523:00+3sw8168440 0.0 1014496
02:00+2sw7159022 0.0 1014529
05:00+2sw7149377 0.0 1013509
08:00+4sw7119088 0.0 1013522
11:00+6sw5885100 0.0 1014642
14:00+6ssw5782100 0.0 1013521
17:00+6s4780100 0.0 1012228
20:00+5s3789100 0.0 1013211
6 march, sat
sat623:00+4ssw3595100 0.0 1012106
02:00+3sw41097100 0.0 1011248
05:00+3wsw51194100 0.0 1010293
08:00+4wnw5990100 0.0 1012463
11:00+2nnw91280100 0.0 1015846
14:00+2nnw91163100 0.1 10171261
17:000nnw8115299 0.0 10201213
20:00−2nnw6115766 0.0 1024953
7 march, sun
sun723:00−2nw510610 0.0 1025947
02:00−2wnw49620 0.0 1026555
05:00−3wnw49670 0.0 1026375
08:00−1w57580 0.0 1026585
11:00+2w79440 0.0 10251541
14:00+3wsw811435 0.0 10221591
17:00+1wsw511493 0.0 1021610
20:00−1wsw512581 0.0 1020390
8 march, mon
mon823:00−1wsw714621 0.0 1019502
02:00−1wsw716750 0.0 1018587
05:00−1wsw7148013 0.0 1016436
08:00+1wsw8137153 0.0 1016775
11:00+6wsw9125170 0.0 10161725
14:00+7wsw8124983 0.0 10151919
17:00+5w485795 0.0 1015261
20:00+2wsw127095 0.0 101542
9 march, tue
tue923:00+1w2376100 0.0 101561
02:000wsw238479 0.0 101462
05:00−1sw35840 0.0 1014101
08:00+2w696930 0.0 1015604
11:00+2wnw688396 0.3 1015702
14:00+3nw565598 0.6 10161404
17:00+1nnw365883 0.0 1017427
20:00−1n357283 0.0 1019160